Milwaukee Timmerman, WI

3:49 AM CDT on August 23, 2017 (GMT -0500)
Timmerman

Weather History for KMWC - January, 2013

Change the Weather History Date:

Wednesday, January 9, 2013

  Actual Average Record
Temperature  
Mean Temperature 34 °F -  
Max Temperature 39 °F 25 °F 51 °F (2002)
Min Temperature 28 °F 11 °F -15 °F (1982)
Degree Days  
Heating Degree Days 30    
Moisture  
Dew Point 26 °F    
Average Humidity 70    
Maximum Humidity 87    
Minimum Humidity 52    
Precipitation  
Precipitation 0.00 in - - ()
Sea Level Pressure  
Sea Level Pressure 30.17 in    
Wind  
Wind Speed 15 mph (WSW)    
Max Wind Speed 30 mph    
Max Gust Speed 39 mph    
Visibility 10 miles    
Events      
Averages and records for this station are not official NWS values.
T = Trace of Precipitation, MM = Missing Value Source: NWS Daily Summary

Daily Weather History Graph

Daily Weather History Graph

Search for Another Location

Airport or City:

Trip Planner

Search our weather history database for the weather conditions in past years. The results will help you decide how hot, cold, wet, or windy it might be!

Date:

Astronomy

Jan. 09, 2013 Rise Set
Actual Time 7:23 AM CST 4:36 PM CST
Civil Twilight 6:51 AM CST 5:07 PM CST
Nautical Twilight 6:15 AM CST 5:43 PM CST
Astronomical Twilight 5:41 AM CST 6:17 PM CST
Moon 5:02 AM CST (1/9) 2:37 PM CST (1/9)
Length of Visible Light 10h 16m
Length of Day
9h 12m
Waning Crescent, 6% of the Moon is Illuminated
Jan 9
Waning Crescent
Jan 11
New
Jan 18
First Quarter
Jan 26
Full
Feb 3
Last Quarter

Hourly Weather History & Observations

Time (CST) Temp. Windchill Dew Point Humidity Pressure Visibility Wind Dir Wind Speed Gust Speed Precip Events Conditions
12:15 AM 37.4 °F 29.8 °F 28.4 °F 70% 29.92 in 10.0 mi SSW 11.5 mph - N/A   Clear
12:35 AM 39.2 °F 29.8 °F 28.4 °F 65% 29.92 in 10.0 mi SW 18.4 mph 24.2 mph N/A   Clear
12:55 AM 39.2 °F 30.5 °F 28.4 °F 65% 29.91 in 10.0 mi SW 16.1 mph 25.3 mph N/A   Clear
1:15 AM 37.4 °F 28.9 °F 30.2 °F 75% 29.91 in 10.0 mi SW 13.8 mph 24.2 mph N/A   Clear
1:35 AM 37.4 °F 29.3 °F 30.2 °F 75% 29.91 in 10.0 mi SW 12.7 mph 20.7 mph N/A   Clear
1:55 AM 39.2 °F 30.5 °F 30.2 °F 70% 29.91 in 10.0 mi WSW 16.1 mph 24.2 mph N/A   Clear
2:15 AM 39.2 °F 29.3 °F 30.2 °F 70% 29.92 in 10.0 mi WSW 20.7 mph 29.9 mph N/A   Scattered Clouds
2:35 AM 37.4 °F 27.8 °F 30.2 °F 75% 29.92 in 10.0 mi WSW 17.3 mph 31.1 mph N/A   Scattered Clouds
2:55 AM 37.4 °F 27.2 °F 30.2 °F 75% 29.93 in 10.0 mi WSW 19.6 mph 24.2 mph N/A   Scattered Clouds
3:15 AM 37.4 °F 27.2 °F 30.2 °F 75% 29.93 in 10.0 mi WSW 19.6 mph 25.3 mph N/A   Clear
3:35 AM 37.4 °F 26.4 °F 30.2 °F 75% 29.94 in 10.0 mi West 23.0 mph 27.6 mph N/A   Clear
3:55 AM 35.6 °F 24.8 °F 30.2 °F 81% 29.95 in 10.0 mi WSW 19.6 mph 28.8 mph N/A   Clear
4:15 AM 35.6 °F 24.8 °F 30.2 °F 81% 29.96 in 10.0 mi WSW 19.6 mph 29.9 mph N/A   Clear
4:35 AM 35.6 °F 24.5 °F 30.2 °F 81% 29.97 in 10.0 mi WSW 20.7 mph 32.2 mph N/A   Clear
4:55 AM 33.8 °F 23.2 °F 30.2 °F 87% 29.98 in 10.0 mi West 17.3 mph 25.3 mph N/A   Clear
5:15 AM 33.8 °F 22.5 °F 30.2 °F 87% 30.01 in 10.0 mi West 19.6 mph 25.3 mph N/A   Clear
5:35 AM 33.8 °F 23.5 °F 30.2 °F 87% 30.02 in 10.0 mi West 16.1 mph 25.3 mph N/A   Clear
5:55 AM 33.8 °F 23.2 °F 28.4 °F 81% 30.03 in 10.0 mi West 17.3 mph 24.2 mph N/A   Clear
7:45 AM 33.8 °F 24.3 °F 26.6 °F 75% 30.08 in 10.0 mi WSW 13.8 mph - N/A   Clear
9:45 AM 39.2 °F 28.7 °F 26.6 °F 61% 30.12 in 10.0 mi West 23.0 mph 31.1 mph N/A   Clear
10:45 AM 39.2 °F 30.2 °F 23.0 °F 52% 30.14 in 10.0 mi West 17.3 mph 32.2 mph N/A   Clear
11:45 AM 39.2 °F 30.5 °F 23.0 °F 52% 30.15 in 10.0 mi West 16.1 mph 27.6 mph N/A   Clear
12:45 PM 39.2 °F 28.3 °F 23.0 °F 52% 30.19 in 10.0 mi WSW 25.3 mph 36.8 mph N/A   Clear
1:45 PM 39.2 °F 27.4 °F 23.0 °F 52% 30.21 in 10.0 mi WSW 29.9 mph 39.1 mph N/A   Clear
2:45 PM 39.2 °F 29.3 °F 24.8 °F 56% 30.25 in 10.0 mi West 20.7 mph 35.7 mph N/A   Clear
3:45 PM 37.4 °F 27.5 °F 24.8 °F 60% 30.31 in 10.0 mi WSW 18.4 mph 27.6 mph N/A   Clear
4:45 PM 35.6 °F 26.2 °F 24.8 °F 65% 30.33 in 10.0 mi West 15.0 mph 20.7 mph N/A   Clear
5:45 PM 35.6 °F 29.2 °F 21.2 °F 56% 30.38 in 10.0 mi West 8.1 mph 16.1 mph N/A   Clear
6:45 PM 33.8 °F 26.4 °F 21.2 °F 60% 30.40 in 10.0 mi West 9.2 mph - N/A   Clear
8:15 PM 32.0 °F 27.5 °F 23.0 °F 69% 30.44 in 10.0 mi West 4.6 mph - N/A   Clear
8:35 PM 32.0 °F 25.6 °F 23.0 °F 69% 30.44 in 10.0 mi WSW 6.9 mph - N/A   Clear
8:45 PM 30.2 °F 23.4 °F 21.2 °F 69% 30.44 in 10.0 mi West 6.9 mph - N/A   Clear
8:55 PM 32.0 °F 27.5 °F 23.0 °F 69% 30.44 in 10.0 mi West 4.6 mph - N/A   Clear
9:15 PM 30.2 °F 24.3 °F 23.0 °F 75% 30.43 in 10.0 mi NW 5.8 mph - N/A   Clear
9:35 PM 30.2 °F 25.4 °F 21.2 °F 69% 30.43 in 10.0 mi NNW 4.6 mph - N/A   Clear
9:55 PM 30.2 °F 23.4 °F 21.2 °F 69% 30.41 in 10.0 mi NW 6.9 mph - N/A   Clear
10:15 PM 30.2 °F 22.6 °F 21.2 °F 69% 30.40 in 10.0 mi NNW 8.1 mph - N/A   Clear
10:35 PM 30.2 °F 25.4 °F 21.2 °F 69% 30.40 in 10.0 mi NNW 4.6 mph - N/A   Clear
10:55 PM 30.2 °F 24.3 °F 21.2 °F 69% 30.40 in 10.0 mi NNW 5.8 mph - N/A   Clear
11:15 PM 30.2 °F - 21.2 °F 69% 30.41 in 10.0 mi Calm Calm - N/A   Clear
11:35 PM 30.2 °F 25.4 °F 21.2 °F 69% 30.43 in 10.0 mi South 4.6 mph - N/A   Clear
11:55 PM 28.4 °F 21.2 °F 21.2 °F 74% 30.44 in 10.0 mi SSW 6.9 mph - N/A   Clear